Vertical_Velocity
-1 -1 -1 -0 -0 -0 -0 -0 -1 -1 -2 -2 -1 -0 1 2 1 1 0 0 0 0 -0 -0 -0 -1 -1 -0 -0 -0 -1 -1 -1 -1 -1 -1 -1 -1 -0 -0 -0 0 0 0 0 1 1 1 1 1 1 1 0 0 0 0 0 0 0 -0 -0 -0 -0 -0 -0 -0 -1 -1 -1
-1 -1 -1 -0 -0 -0 0 -0 -1 -1 -1 -1 0 2 3 3 1 0 -0 0 0 0 1 1 0 0 0 -0 -1 -1 -1 -1 -1 -1 -1 -1 -1 -1 -1 -1 -1 -0 -0 -0 -0 -0 0 0 0 0 0 0 0 -0 -0 -0 0 0 0 -1 -0 -0 0 -0 -0 -1 -1 -1 -1
-1 -1 -1 -0 -0 0 0 0 0 0 0 1 1 2 2 1 0 -0 -1 -0 -0 0 1 0 -0 -0 -0 -1 -1 -1 -1 -2 -2 -1 -1 -1 -1 -1 -1 -1 -1 -1 -1 -1 -1 -1 -0 -0 -0 -0 -0 0 -0 -0 -0 -0 0 1 0 -1 -0 -0 0 -0 -1 -1 -1 -0 -1
-2 -2 -2 -1 -1 -0 -0 -0 -0 -0 0 0 0 0 -0 -0 -1 -1 -1 -1 -0 -0 -0 -1 -1 -1 -1 -1 -1 -2 -2 -2 -2 -2 -2 -2 -2 -2 -2 -1 -1 -1 -1 -1 -1 -1 -0 -0 0 0 0 0 0 -0 -0 -0 0 0 -0 -1 -1 -0 -0 -0 -1 -1 -0 -0 -0
-3 -3 -3 -2 -2 -2 -1 -1 -1 -1 -1 -1 -1 -1 -1 -1 -2 -1 -1 -1 -1 -1 -1 -1 -1 -1 -1 -1 -2 -2 -2 -2 -3 -3 -3 -2 -2 -2 -2 -1 -1 -1 -1 -0 -0 0 0 1 1 1 1 0 0 0 0 -0 -0 -0 -0 -1 -0 -0 -0 -0 -1 -0 -0 -0 -0
-3 -3 -3 -3 -3 -2 -2 -2 -1 -1 -0 -1 -1 -1 -1 -2 -2 -2 -1 -1 -1 -1 -1 -1 -1 -1 -1 -1 -2 -2 -2 -3 -3 -3 -3 -3 -2 -2 -1 -1 -1 -0 -0 -0 -0 0 0 1 1 1 1 1 1 0 0 -0 0 -0 -0 -0 0 0 -0 -0 -1 -1 -0 -0 -0
-3 -3 -3 -3 -3 -3 -2 -2 -2 -1 -1 -1 -1 -1 -1 -2 -2 -2 -1 -1 -0 -0 -0 -1 -1 -1 -1 -1 -1 -2 -2 -2 -2 -2 -2 -2 -2 -1 -1 -0 -0 -0 -0 -0 -0 -0 -0 0 0 0 0 0 1 0 0 0 0 0 0 -0 0 0 0 0 -0 -0 -0 0 -0
-1 -1 -2 -2 -2 -2 -2 -2 -2 -2 -1 -0 -0 -0 -0 -0 -0 -0 -0 0 0 0 -0 -1 -1 -1 -1 -1 -1 -2 -2 -2 -2 -2 -2 -2 -1 -1 -1 -0 -0 -0 -0 -1 -1 -1 -1 -0 -0 -0 -0 -0 0 0 0 0 0 0 -0 -0 -0 0 0 0 -0 -0 0 0 0
-0 -0 -0 0 0 0 -0 -0 -1 -1 -1 -1 -0 -0 0 1 1 0 -0 -0 -0 -0 -1 -1 -1 -1 -2 -2 -2 -2 -2 -2 -2 -2 -2 -1 -1 -1 -1 -0 -0 -0 -0 -1 -1 -1 -1 -1 -1 -1 -1 -1 -0 -0 -0 -0 0 0 -0 -0 -0 -0 -0 0 0 0 0 0 0
-0 -0 1 2 2 2 2 1 1 -0 -1 -1 -1 -1 -0 -0 -1 -1 -2 -1 -1 -1 -1 -1 -1 -2 -2 -2 -2 -2 -2 -2 -2 -1 -1 -1 -1 -1 -1 -1 -0 -0 -0 -1 -1 -1 -1 -1 -1 -1 -1 -1 -0 -0 -1 -1 -0 -0 -0 -0 -0 -0 -0 -0 0 0 0 -0 -0
-1 -0 1 2 2 2 1 1 1 0 -0 -1 -1 -1 -1 -2 -2 -2 -2 -2 -2 -2 -2 -1 -1 -1 -1 -1 -1 -1 -1 -1 -1 -0 -0 -0 -0 -0 -0 -0 -0 -0 -0 -1 -1 -1 -1 -0 -0 -0 -0 -1 -0 -0 -1 -1 -0 -0 -0 -1 -0 -0 -0 -1 -0 -0 -0 -0 -0
-1 -1 -1 -1 -0 -0 -0 -0 -0 -0 -0 -1 -1 -2 -2 -2 -3 -2 -2 -1 -2 -2 -2 -1 -1 -1 -1 -1 -1 -0 -0 -0 -0 -0 -0 -0 -0 -0 -0 -0 -0 0 0 -0 -0 -0 -0 -0 -0 -0 -0 -1 -0 -0 -0 -0 0 0 -0 -0 -0 -0 -0 -1 -1 -0 -0 -0 -0
-2 -3 -3 -3 -2 -1 -1 -1 -2 -2 -2 -2 -2 -2 -2 -2 -2 -1 -0 -0 -1 -1 -1 -1 -1 -1 -1 -1 -0 -0 -0 -0 -0 -0 -0 -0 -0 -0 -0 -0 -0 -0 -0 -0 -0 -0 -0 -0 -0 0 0 -0 -0 0 0 1 1 1 0 0 0 0 0 -0 -0 -0 -0 0 -0
-2 -2 -3 -2 -2 -1 -1 -1 -2 -2 -2 -2 -2 -2 -1 -1 -1 -0 0 -0 -0 -1 -1 -1 -1 -1 -1 -0 -0 -0 -0 -0 -0 -1 -1 -1 -1 -1 -1 -1 -1 -1 -1 -1 -1 -1 -1 -1 -0 0 0 0 0 0 1 1 1 1 1 1 1 1 1 0 0 0 0 0 -0
-1 -1 -1 -1 -0 -1 -1 -1 -1 -1 -1 -1 -1 -1 -0 -0 0 0 0 -0 -0 -1 -1 -1 -1 -1 -0 0 0 0 0 -0 -0 -0 -0 -1 -1 -1 -1 -1 -2 -2 -2 -1 -1 -1 -1 -1 -1 -1 -0 0 0 1 1 1 2 2 1 1 1 1 1 1 1 0 0 0 0
-0 -0 0 0 0 0 0 -0 -0 -0 -0 -0 -0 0 0 0 0 0 0 -0 -0 -1 -1 -1 -0 0 1 1 1 1 0 0 0 0 -0 -0 -1 -1 -1 -2 -2 -2 -1 -1 -1 -1 -2 -2 -2 -1 -1 -0 0 1 1 2 2 2 2 2 1 1 1 1 1 0 0 0 0
0 0 0 1 1 1 0 0 0 0 0 1 0 0 -0 -0 -0 -0 0 -0 -0 -0 -0 0 1 1 1 1 1 0 0 0 0 0 0 -0 -1 -1 -1 -1 -1 -1 -0 -0 -1 -2 -3 -3 -2 -1 -1 -0 0 1 1 1 2 1 1 1 1 1 1 0 0 -0 -0 -1 -1
2 1 1 1 1 0 0 0 1 1 1 1 0 -0 -0 -0 -0 0 0 0 0 0 0 0 0 0 0 0 -0 -0 -0 -0 -0 -0 -0 -1 -1 -1 -0 -0 0 0 1 0 -1 -2 -2 -2 -2 -1 -0 0 0 1 1 1 1 1 1 1 0 -0 -0 -0 -1 -1 -1 -1 -1
3 2 2 1 1 1 1 1 1 1 1 1 0 0 0 0 0 0 0 0 1 1 0 0 -0 -0 -1 -1 -1 -1 -1 -2 -2 -2 -1 -1 -1 -0 0 0 0 0 0 -0 -1 -1 -1 -1 -0 0 1 1 1 1 1 1 1 1 1 0 0 0 -0 -0 -0 -0 -0 0 0
2 2 2 1 1 1 1 1 1 1 1 1 1 1 0 0 1 1 1 1 0 -0 -0 -1 -1 -1 -1 -1 -2 -2 -2 -3 -2 -2 -2 -1 -1 0 0 0 -0 -0 -0 -0 -0 -1 -1 -0 0 1 1 1 1 1 1 1 1 1 1 1 1 1 1 1 1 1 0 0 1
1 1 1 1 1 1 1 1 1 1 1 1 0 1 1 0 0 0 0 -0 -1 -1 -1 -1 -1 -1 -1 -1 -2 -2 -2 -2 -2 -2 -1 -1 -0 0 0 0 0 -0 -0 -1 -1 -1 -0 -0 0 1 1 2 2 2 2 2 2 1 1 1 1 1 1 1 1 1 1 1 1
1 1 1 0 1 1 1 1 1 0 0 -0 -0 -0 -0 -0 -0 -0 -1 -1 -1 -1 -1 -1 -1 -1 -1 -1 -1 -1 -1 -2 -1 -1 -1 -0 -0 -0 -0 -1 -1 -1 -0 -0 -0 -0 -0 -1 -1 -0 -0 0 0 1 1 1 1 1 1 1 1 1 1 1 1 1 1 1 1
1 1 0 0 0 0 0 0 -0 -1 -1 -1 -1 -0 -1 -1 -1 -1 -1 -1 -0 -0 -0 -0 -0 -0 -0 -0 -0 -1 -1 -1 -1 -1 -1 -1 -1 -1 -1 -1 -1 -1 -1 -1 -1 -0 -0 -1 -2 -2 -1 -1 -0 0 1 1 1 1 1 1 1 1 1 1 1 1 1 1 1
1 0 -0 -0 -0 -0 -0 -1 -1 -1 -1 -1 -0 -0 -0 -0 -1 -1 -0 -0 -0 -0 -0 -0 -0 -0 -0 -0 -0 -1 -1 -1 -1 -1 -1 -1 -1 -1 -1 -1 -1 -1 -1 -1 -1 -0 0 0 0 0 1 1 1 1 1 1 1 1 1 1 1 1 1 1 1 1 1 1 1
0 -0 -0 -0 -0 -1 -1 -0 -1 -0 -0 -0 -0 -0 -0 -0 -0 -0 -0 -0 -0 -0 -0 -1 -1 -1 -0 -1 -1 -1 -1 -1 -1 -1 -1 -1 -1 -1 -1 -1 -1 -1 -1 -1 -0 0 1 1 1 1 1 1 1 1 1 1 1 1 1 1 1 1 1 1 1 1 1 1 1
0 -0 0 0 0 -0 -0 -0 -0 -0 -0 -0 -0 -0 -0 -0 -0 -0 -0 -0 -1 -1 -1 -1 -1 -1 -1 -1 -1 -1 -1 -1 -1 -1 -1 -1 -1 -0 -0 -0 -0 -0 -0 0 0 0 1 1 1 1 1 1 1 1 1 1 1 1 1 1 1 1 1 1 1 1 0 0 -0
1 1 1 1 1 0 0 0 0 0 0 0 0 -0 -0 -0 -0 -1 -1 -1 -1 -1 -1 -1 -1 -1 -1 -1 -1 -1 -1 -0 -0 -0 -0 -0 -0 0 0 0 0 0 0 0 0 0 1 1 1 1 1 1 1 1 1 1 1 1 1 1 1 0 0 0 -0 -0 -0 -1 -1
1 1 1 1 1 1 0 0 0 0 0 0 -0 -0 -0 -1 -1 -1 -1 -1 -2 -1 -1 -1 -1 -1 -1 -1 -1 -1 -0 -0 -0 0 0 0 0 0 0 -0 -0 -0 -0 -0 -0 -0 0 1 0 0 0 0 0 0 0 -0 -0 -0 0 0 -0 -0 -0 -0 -0 -0 -0 -0 -0
1 1 1 1 1 0 0 0 0 0 -0 -0 -0 -0 -1 -1 -1 -1 -1 -1 -1 -1 -1 -1 -1 -1 -1 -1 -0 -0 0 0 1 1 1 0 0 -0 -0 -1 -1 -0 -1 -1 -1 -0 -0 0 -0 -0 -0 -0 -0 -0 -0 -0 -0 0 0 0 0 -0 -0 -0 0 0 0 0 0
1 1 1 0 0 0 0 -0 -0 -0 -0 -1 -1 -1 -1 -1 -1 -1 -1 -1 -1 -0 -0 -0 0 0 0 0 1 1 1 1 1 0 0 -0 -1 -1 -1 -1 -1 -1 -1 -1 -1 -1 -0 -0 -0 -0 -0 -1 -1 -1 -0 -0 0 1 1 0 0 -0 -0 -0 0 0 0 1 1
1 1 0 0 0 -0 0 0 -0 -0 -0 -1 -0 -0 -0 -0 -0 -0 -0 -0 -0 0 0 1 1 1 1 1 1 1 0 0 -0 -1 -1 -1 -1 -1 -1 -1 -1 -1 -1 -1 -1 -1 -0 -0 -0 -1 -1 -1 -1 -0 -0 0 1 1 1 0 0 -0 0 0 0 1 1 1 1
1 0 0 -0 -0 0 0 0 0 -0 -0 -0 -0 -0 0 0 -0 -0 -0 -0 -0 0 0 1 1 1 1 0 0 -0 -1 -1 -1 -1 -1 -2 -2 -2 -2 -2 -2 -1 -1 -1 -1 -1 -0 -0 -0 -1 -1 -1 -0 -0 1 1 1 1 1 1 0 0 1 1 1 1 1 1 0
0 0 -0 -0 0 0 0 0 0 0 0 0 0 0 0 0 -0 -0 -0 -0 -0 -0 -0 0 0 0 -0 -0 -1 -1 -1 -1 -2 -2 -2 -2 -2 -2 -2 -2 -2 -2 -1 -1 -1 -0 -0 -0 -0 -0 -0 0 0 1 1 2 2 1 1 1 1 1 1 0 0 -0 -0 -1 -1
0 -0 -0 -0 0 0 0 1 1 1 0 0 0 0 0 0 -0 -0 -0 -0 -0 -0 -0 -0 -0 -0 -0 -1 -1 -1 -1 -1 -1 -1 -1 -1 -1 -1 -1 -1 -1 -1 -1 -1 0 0 0 1 0 0 1 1 1 1 2 2 1 1 1 0 1 0 0 -0 -1 -1 -1 -1 -1
-0 -0 -0 -0 0 0 0 1 1 1 0 0 0 0 0 0 -0 -0 -0 -0 -0 -0 0 0 0 -0 -0 -0 -1 -1 -1 -1 -1 -1 -1 -1 -1 -1 -1 -0 0 0 0 0 1 1 1 1 1 1 1 1 1 1 1 1 1 1 0 0 -0 -0 -1 -1 -1 -1 -0 -0 0
-0 -0 -0 -0 0 0 0 0 0 0 0 0 0 0 0 0 0 0 -0 -0 0 0 0 0 0 0 -0 -0 -0 -0 -0 -0 -0 -0 -0 -0 -0 -0 -0 0 1 1 1 1 1 1 1 1 1 1 1 1 1 1 1 1 1 0 0 -0 -0 -1 -1 -0 -0 0 1 1 1
-0 -0 -0 -0 0 0 0 0 0 0 0 0 0 1 1 1 1 0 0 0 0 0 0 0 0 0 -0 -0 -0 -0 -0 -0 -0 -0 -0 -0 -0 -0 -0 -0 0 1 1 1 2 1 1 0 0 0 0 1 1 1 1 0 0 0 -0 -0 -0 0 0 1 1 1 1 1 0
-0 -0 -0 0 0 0 0 0 0 0 0 1 1 1 1 1 1 0 0 0 0 0 0 0 0 0 0 0 0 0 0 0 0 0 -0 -0 -0 -0 -0 -0 -0 0 0 1 1 1 0 -0 0 0 0 0 0 0 -0 -0 -0 -0 -0 -0 0 1 1 1 1 1 0 -0 -1
-0 0 0 0 0 0 0 0 0 0 1 1 1 1 1 1 1 0 0 0 0 0 0 0 0 0 0 0 0 0 0 0 0 -0 -0 -0 -0 -0 -0 0 -0 -0 -0 -0 -0 -0 -0 -0 -0 0 0 0 0 -0 -0 -0 -0 -0 -0 0 0 0 0 0 -0 -1 -1 -2 -2
0 0 0 0 0 0 0 0 0 1 1 1 1 1 1 0 0 0 0 0 0 0 0 0 0 0 0 1 1 0 0 0 -0 -0 -0 -0 -0 0 0 1 0 0 -0 -0 -1 -1 -1 -0 -0 -0 -0 -0 -0 -0 -0 -0 -0 -0 -0 -0 -0 -1 -1 -1 -2 -2 -2 -3 -3
0 0 0 0 0 0 0 0 0 1 1 0 0 0 0 0 0 0 0 -0 -0 -0 0 0 0 1 1 1 0 0 -0 -0 -0 -0 -0 -0 0 0 1 1 1 1 0 0 -0 -0 -0 -0 -0 -0 0 0 0 0 0 -0 -0 -1 -1 -1 -1 -2 -2 -2 -3 -3 -3 -3 -3
Height
3048 3048 3048 3049 3049 3049 3049 3049 3049 3049 3049 3050 3050 3051 3052 3052 3053 3054 3055 3055 3056 3057 3057 3057 3058 3058 3059 3059 3060 3060 3061 3061 3062 3062 3062 3063 3063 3064 3064 3065 3065 3065 3066 3066 3067 3067 3067 3068 3068 3069 3069 3070 3070 3071 3071 3071 3072 3072 3072 3073 3073 3073 3073 3074 3074 3074 3074 3074 3074
3046 3046 3047 3047 3047 3047 3047 3047 3047 3047 3047 3048 3048 3049 3050 3051 3051 3052 3052 3053 3054 3054 3055 3056 3056 3057 3057 3057 3057 3058 3059 3059 3060 3060 3061 3061 3061 3062 3062 3062 3063 3063 3063 3064 3064 3065 3065 3066 3066 3067 3067 3067 3068 3068 3069 3069 3070 3070 3070 3070 3071 3071 3071 3072 3072 3072 3072 3072 3072
3044 3044 3045 3045 3045 3046 3046 3046 3046 3046 3046 3047 3047 3048 3048 3049 3049 3050 3050 3051 3052 3052 3053 3053 3054 3054 3055 3055 3056 3056 3057 3057 3058 3058 3059 3059 3059 3060 3060 3060 3061 3061 3061 3062 3062 3062 3063 3063 3064 3064 3065 3065 3066 3066 3067 3067 3067 3067 3068 3068 3068 3069 3069 3069 3069 3070 3070 3070 3070
3043 3043 3044 3044 3044 3044 3044 3044 3045 3045 3045 3045 3046 3046 3047 3047 3047 3048 3048 3049 3050 3051 3051 3052 3052 3052 3053 3053 3054 3054 3055 3055 3056 3056 3057 3057 3057 3058 3058 3058 3059 3059 3059 3059 3060 3060 3061 3061 3062 3062 3062 3063 3063 3064 3064 3064 3065 3065 3065 3066 3066 3067 3067 3067 3067 3067 3068 3068 3068
3042 3042 3042 3042 3043 3043 3043 3043 3043 3043 3043 3044 3044 3045 3045 3046 3046 3047 3047 3048 3049 3049 3050 3050 3051 3051 3052 3052 3052 3053 3053 3054 3054 3054 3055 3055 3056 3056 3056 3056 3057 3057 3057 3057 3057 3058 3058 3059 3059 3059 3060 3060 3061 3061 3061 3062 3062 3062 3063 3063 3064 3064 3064 3065 3065 3065 3066 3066 3066
3041 3041 3041 3041 3042 3042 3042 3042 3042 3042 3042 3043 3043 3043 3044 3044 3045 3046 3046 3047 3047 3048 3048 3049 3049 3050 3050 3051 3051 3051 3052 3052 3052 3052 3053 3053 3053 3054 3054 3054 3054 3054 3055 3055 3055 3055 3056 3056 3057 3057 3057 3058 3058 3058 3059 3059 3060 3060 3061 3061 3061 3062 3062 3062 3062 3063 3063 3063 3063
3040 3040 3040 3040 3041 3041 3041 3041 3042 3042 3042 3042 3043 3043 3043 3044 3044 3045 3045 3046 3047 3047 3047 3048 3048 3048 3049 3049 3049 3050 3050 3050 3050 3051 3051 3051 3051 3051 3052 3052 3052 3052 3052 3052 3053 3053 3053 3054 3054 3054 3055 3055 3056 3056 3056 3057 3057 3058 3058 3059 3059 3059 3060 3060 3060 3061 3061 3061 3061
3039 3040 3040 3040 3040 3040 3041 3041 3041 3042 3042 3042 3042 3043 3043 3043 3044 3044 3045 3045 3046 3046 3046 3047 3047 3047 3047 3047 3048 3048 3048 3048 3048 3048 3049 3049 3049 3049 3049 3050 3050 3050 3050 3050 3051 3051 3051 3051 3052 3052 3052 3053 3053 3053 3054 3054 3055 3055 3056 3056 3057 3057 3057 3057 3057 3058 3058 3058 3058
3039 3039 3039 3040 3040 3040 3040 3040 3041 3041 3042 3042 3042 3043 3043 3043 3043 3043 3044 3044 3045 3045 3045 3045 3046 3046 3046 3046 3046 3046 3046 3047 3047 3047 3047 3047 3047 3047 3047 3047 3048 3048 3048 3048 3048 3048 3048 3049 3049 3049 3050 3050 3051 3051 3051 3052 3052 3053 3053 3054 3054 3055 3055 3055 3055 3056 3056 3056 3056
3038 3038 3039 3039 3039 3039 3039 3040 3040 3041 3041 3042 3042 3042 3042 3042 3042 3043 3043 3043 3043 3044 3044 3044 3044 3044 3044 3044 3044 3045 3045 3045 3045 3045 3045 3045 3045 3046 3046 3046 3046 3046 3046 3046 3046 3046 3046 3047 3047 3047 3047 3047 3048 3048 3049 3049 3050 3050 3051 3051 3052 3052 3052 3053 3053 3053 3053 3053 3053
3037 3037 3037 3038 3038 3038 3039 3039 3039 3040 3040 3041 3041 3041 3042 3042 3042 3042 3042 3042 3042 3043 3043 3043 3043 3043 3043 3043 3043 3043 3043 3043 3043 3043 3043 3044 3044 3044 3044 3044 3044 3044 3044 3044 3044 3044 3044 3045 3045 3045 3045 3045 3046 3046 3046 3047 3047 3048 3048 3049 3049 3050 3050 3050 3051 3051 3051 3051 3051
3036 3036 3037 3037 3037 3037 3037 3038 3038 3038 3039 3039 3040 3040 3040 3040 3041 3041 3041 3041 3042 3042 3042 3042 3042 3042 3042 3042 3042 3042 3042 3042 3042 3042 3042 3042 3042 3043 3043 3043 3043 3043 3043 3043 3043 3043 3043 3043 3043 3043 3043 3043 3043 3044 3044 3045 3045 3046 3046 3047 3047 3047 3048 3048 3048 3049 3049 3049 3049
3035 3035 3036 3036 3036 3036 3037 3037 3037 3037 3037 3038 3038 3038 3039 3039 3039 3040 3040 3040 3041 3040 3040 3040 3040 3040 3040 3040 3040 3041 3041 3041 3041 3041 3041 3041 3041 3042 3042 3042 3042 3042 3042 3042 3042 3041 3041 3041 3041 3041 3041 3041 3041 3042 3042 3042 3043 3043 3044 3044 3045 3045 3046 3046 3046 3047 3047 3047 3047
3034 3034 3035 3035 3035 3035 3035 3036 3036 3036 3037 3037 3037 3037 3038 3038 3038 3039 3039 3039 3039 3039 3039 3039 3039 3039 3039 3039 3039 3039 3039 3039 3040 3040 3040 3040 3040 3040 3040 3040 3040 3040 3040 3040 3040 3040 3040 3039 3039 3039 3039 3039 3039 3040 3040 3041 3041 3042 3042 3042 3043 3043 3043 3044 3044 3044 3045 3045 3045
3033 3033 3034 3034 3034 3034 3034 3034 3035 3035 3035 3036 3036 3036 3037 3037 3037 3037 3038 3038 3038 3038 3038 3038 3038 3038 3038 3038 3038 3038 3038 3038 3038 3038 3038 3038 3038 3038 3038 3039 3039 3039 3039 3038 3038 3038 3038 3038 3037 3037 3037 3037 3038 3038 3038 3039 3039 3040 3040 3041 3041 3041 3042 3042 3042 3042 3043 3043 3043
3032 3032 3033 3033 3033 3033 3033 3033 3033 3034 3034 3035 3035 3035 3036 3036 3036 3037 3037 3037 3037 3037 3037 3037 3037 3037 3037 3037 3037 3037 3037 3037 3037 3037 3037 3037 3037 3037 3037 3037 3037 3037 3037 3037 3037 3037 3036 3036 3036 3036 3036 3036 3036 3037 3037 3037 3038 3038 3039 3039 3039 3040 3040 3040 3041 3041 3041 3041 3041
3032 3032 3032 3032 3032 3032 3032 3032 3032 3033 3033 3033 3034 3034 3034 3035 3035 3035 3036 3036 3036 3037 3037 3037 3037 3037 3037 3037 3036 3036 3036 3036 3036 3036 3036 3035 3035 3035 3035 3035 3035 3035 3035 3035 3035 3035 3035 3035 3035 3035 3035 3035 3035 3035 3036 3036 3037 3037 3037 3037 3038 3038 3038 3039 3039 3039 3039 3040 3040
3031 3031 3031 3031 3031 3031 3031 3031 3032 3032 3032 3032 3032 3033 3033 3034 3034 3035 3035 3035 3035 3036 3036 3036 3036 3036 3036 3035 3035 3035 3035 3035 3034 3034 3034 3034 3034 3034 3034 3034 3034 3034 3034 3034 3034 3034 3034 3034 3034 3034 3034 3034 3034 3034 3035 3035 3035 3036 3036 3036 3037 3037 3037 3037 3038 3038 3038 3038 3038
3031 3030 3030 3030 3030 3030 3030 3031 3031 3031 3031 3031 3032 3032 3032 3033 3033 3034 3034 3034 3034 3034 3034 3034 3034 3034 3034 3034 3034 3034 3034 3034 3033 3033 3033 3033 3032 3032 3032 3032 3032 3032 3033 3033 3033 3033 3033 3033 3033 3033 3033 3033 3034 3034 3034 3034 3034 3035 3035 3035 3036 3036 3036 3037 3037 3037 3037 3037 3037
3030 3030 3030 3030 3029 3029 3030 3030 3030 3030 3030 3031 3031 3031 3032 3032 3032 3033 3033 3033 3033 3033 3033 3033 3033 3033 3033 3033 3034 3034 3033 3033 3033 3032 3032 3032 3031 3031 3032 3032 3031 3031 3032 3032 3032 3032 3032 3033 3033 3033 3033 3033 3033 3033 3033 3033 3034 3034 3034 3034 3035 3035 3035 3035 3036 3036 3036 3036 3036
3029 3029 3029 3029 3029 3029 3029 3029 3029 3029 3030 3030 3030 3031 3031 3031 3031 3032 3032 3032 3032 3032 3032 3032 3032 3033 3033 3033 3033 3033 3033 3033 3032 3032 3031 3031 3031 3031 3031 3031 3031 3031 3031 3031 3031 3031 3032 3032 3032 3032 3032 3032 3032 3032 3032 3033 3033 3033 3033 3033 3034 3034 3034 3034 3035 3035 3035 3035 3035
3028 3028 3028 3028 3028 3028 3028 3028 3028 3029 3029 3029 3029 3030 3030 3030 3030 3030 3031 3031 3031 3032 3032 3032 3032 3032 3032 3032 3032 3032 3032 3032 3032 3031 3031 3030 3030 3030 3030 3030 3030 3030 3030 3030 3030 3031 3031 3031 3031 3031 3031 3032 3032 3032 3032 3032 3032 3032 3033 3033 3033 3033 3033 3034 3034 3034 3034 3034 3034
3027 3027 3027 3027 3027 3027 3028 3028 3028 3028 3028 3028 3029 3029 3029 3029 3029 3030 3030 3031 3031 3031 3032 3032 3032 3032 3032 3032 3032 3032 3031 3031 3031 3030 3030 3030 3030 3030 3030 3030 3030 3030 3030 3030 3031 3031 3031 3031 3031 3031 3031 3031 3032 3032 3032 3032 3032 3032 3032 3032 3032 3033 3033 3033 3033 3033 3033 3033 3033
3027 3027 3027 3027 3027 3027 3027 3027 3027 3028 3028 3028 3028 3028 3028 3029 3029 3029 3030 3030 3031 3031 3031 3031 3031 3031 3031 3031 3031 3031 3031 3030 3030 3030 3030 3030 3030 3030 3030 3030 3030 3030 3030 3030 3031 3031 3031 3031 3031 3031 3031 3031 3031 3031 3032 3032 3032 3032 3032 3032 3032 3032 3032 3032 3032 3032 3032 3032 3032
3026 3026 3026 3027 3027 3027 3027 3027 3027 3027 3027 3027 3027 3028 3028 3028 3029 3029 3030 3030 3030 3030 3031 3031 3031 3031 3031 3031 3031 3031 3030 3030 3030 3030 3030 3030 3030 3030 3031 3031 3031 3031 3031 3031 3031 3031 3031 3031 3031 3031 3031 3031 3031 3031 3031 3031 3031 3031 3031 3032 3032 3032 3032 3032 3032 3032 3032 3032 3031
3026 3026 3026 3026 3026 3026 3026 3026 3027 3027 3027 3027 3027 3028 3028 3028 3029 3029 3029 3030 3030 3030 3030 3030 3030 3030 3030 3030 3030 3030 3030 3030 3030 3030 3030 3031 3031 3031 3031 3031 3031 3031 3031 3031 3031 3031 3031 3031 3031 3031 3031 3031 3031 3031 3031 3031 3031 3031 3031 3031 3031 3031 3031 3031 3031 3031 3031 3031 3031
3025 3025 3025 3025 3026 3026 3026 3026 3026 3027 3027 3027 3027 3028 3028 3028 3029 3029 3029 3029 3030 3030 3030 3030 3030 3030 3030 3030 3030 3030 3030 3030 3031 3031 3031 3031 3031 3031 3031 3031 3031 3031 3031 3031 3031 3031 3031 3031 3031 3031 3030 3030 3030 3030 3030 3030 3030 3031 3031 3031 3031 3031 3031 3031 3031 3031 3031 3030 3030
3025 3025 3025 3025 3025 3026 3026 3026 3026 3027 3027 3027 3027 3028 3028 3028 3029 3029 3029 3029 3029 3030 3030 3030 3030 3030 3030 3030 3030 3030 3031 3031 3031 3031 3031 3031 3031 3031 3031 3031 3031 3031 3030 3030 3031 3031 3031 3031 3031 3030 3030 3030 3030 3030 3030 3030 3030 3030 3030 3030 3030 3030 3030 3030 3030 3030 3030 3030 3029
3024 3025 3025 3025 3025 3026 3026 3026 3027 3027 3027 3027 3028 3028 3028 3028 3029 3029 3029 3029 3029 3029 3030 3030 3030 3030 3030 3030 3030 3031 3031 3031 3031 3031 3031 3031 3031 3030 3030 3030 3030 3030 3030 3030 3030 3030 3030 3030 3030 3030 3030 3030 3030 3030 3030 3030 3030 3030 3030 3030 3030 3030 3030 3030 3030 3029 3029 3029 3029
3024 3024 3025 3025 3025 3026 3026 3026 3027 3027 3027 3027 3028 3028 3028 3028 3028 3029 3029 3029 3029 3029 3030 3030 3030 3030 3030 3030 3030 3031 3031 3031 3031 3030 3030 3030 3030 3030 3030 3030 3030 3030 3030 3030 3030 3030 3030 3030 3030 3030 3029 3029 3029 3029 3030 3030 3030 3030 3030 3030 3030 3029 3029 3029 3029 3029 3028 3028 3028
3024 3024 3025 3025 3026 3026 3026 3027 3027 3027 3027 3027 3028 3028 3028 3028 3028 3028 3029 3029 3029 3029 3029 3030 3030 3030 3030 3030 3030 3030 3030 3030 3030 3030 3030 3030 3030 3030 3030 3030 3030 3030 3029 3029 3029 3030 3030 3030 3029 3029 3029 3029 3029 3029 3029 3030 3030 3030 3029 3029 3029 3029 3028 3028 3028 3027 3027 3027 3027
3024 3024 3025 3025 3026 3026 3026 3027 3027 3027 3027 3027 3028 3028 3028 3028 3028 3028 3029 3029 3029 3029 3029 3029 3030 3030 3030 3030 3030 3030 3030 3030 3030 3030 3030 3030 3030 3030 3030 3030 3030 3029 3029 3029 3029 3029 3029 3029 3029 3029 3029 3029 3029 3029 3029 3029 3029 3029 3029 3028 3028 3028 3027 3027 3027 3027 3026 3026 3025
3024 3024 3025 3025 3026 3026 3027 3027 3027 3027 3027 3027 3027 3028 3028 3028 3028 3028 3028 3029 3029 3029 3029 3029 3029 3029 3029 3029 3030 3030 3030 3030 3030 3030 3029 3029 3029 3029 3029 3029 3029 3029 3029 3029 3029 3029 3029 3029 3029 3029 3028 3028 3028 3028 3029 3029 3028 3028 3028 3027 3027 3027 3027 3026 3026 3025 3025 3024 3024
3024 3024 3025 3025 3026 3026 3026 3027 3027 3027 3027 3027 3027 3027 3028 3028 3028 3028 3028 3028 3029 3029 3029 3029 3029 3029 3029 3029 3029 3029 3029 3029 3029 3029 3029 3029 3029 3029 3029 3029 3029 3029 3029 3028 3029 3029 3029 3028 3028 3028 3028 3028 3028 3028 3028 3028 3028 3027 3027 3027 3026 3026 3026 3025 3025 3024 3024 3023 3023
3024 3024 3025 3025 3026 3026 3026 3027 3027 3027 3027 3027 3027 3027 3027 3028 3028 3028 3028 3028 3028 3028 3029 3029 3029 3029 3029 3029 3029 3029 3029 3028 3028 3028 3028 3028 3028 3028 3028 3028 3028 3028 3028 3028 3028 3028 3028 3028 3028 3028 3027 3027 3027 3027 3027 3027 3027 3027 3026 3026 3026 3025 3025 3024 3024 3024 3023 3023 3023
3024 3024 3025 3025 3025 3026 3026 3026 3027 3027 3027 3027 3027 3027 3027 3028 3028 3028 3028 3028 3028 3028 3028 3028 3028 3029 3028 3028 3028 3028 3028 3028 3028 3027 3027 3027 3027 3027 3027 3027 3028 3028 3028 3028 3028 3028 3028 3027 3027 3027 3027 3027 3027 3027 3027 3027 3026 3026 3026 3025 3025 3024 3024 3024 3024 3023 3023 3023 3022
3024 3024 3025 3025 3025 3026 3026 3026 3026 3027 3027 3027 3027 3027 3027 3027 3027 3028 3028 3028 3028 3028 3028 3028 3028 3028 3028 3028 3028 3027 3027 3027 3027 3027 3027 3027 3027 3027 3027 3027 3027 3027 3027 3028 3027 3027 3027 3027 3027 3027 3027 3026 3026 3026 3026 3026 3025 3025 3025 3024 3024 3024 3024 3024 3023 3023 3023 3022 3022
3024 3024 3024 3025 3025 3025 3026 3026 3026 3026 3027 3027 3027 3027 3027 3027 3027 3027 3027 3027 3027 3028 3028 3028 3028 3028 3027 3027 3027 3027 3027 3027 3027 3027 3027 3027 3027 3027 3027 3027 3027 3027 3027 3027 3027 3026 3026 3026 3026 3026 3026 3025 3025 3025 3025 3025 3024 3024 3024 3024 3024 3024 3024 3023 3023 3022 3022 3022 3021
3024 3024 3024 3025 3025 3025 3025 3026 3026 3026 3026 3026 3027 3027 3027 3027 3027 3027 3027 3027 3027 3027 3027 3027 3027 3027 3027 3027 3027 3027 3027 3027 3027 3027 3027 3027 3027 3027 3027 3026 3026 3026 3026 3026 3026 3025 3025 3025 3025 3025 3025 3025 3024 3024 3024 3024 3024 3024 3024 3023 3023 3023 3023 3022 3022 3022 3021 3020 3020
3023 3024 3024 3024 3025 3025 3025 3025 3026 3026 3026 3026 3026 3026 3027 3027 3027 3027 3027 3027 3027 3027 3027 3027 3027 3027 3027 3027 3027 3026 3026 3026 3026 3026 3026 3026 3026 3026 3026 3026 3026 3025 3025 3025 3025 3024 3024 3024 3024 3024 3024 3024 3024 3024 3024 3023 3023 3023 3023 3023 3022 3022 3022 3022 3021 3020 3020 3019 3018
3023 3023 3024 3024 3024 3025 3025 3025 3025 3025 3026 3026 3026 3026 3026 3026 3026 3027 3027 3027 3027 3027 3027 3027 3027 3027 3026 3026 3026 3026 3026 3026 3026 3026 3026 3026 3026 3026 3026 3026 3025 3025 3025 3024 3024 3024 3024 3024 3024 3024 3023 3023 3023 3023 3023 3023 3023 3022 3022 3022 3022 3021 3021 3020 3019 3019 3018 3017 3017